sat.trackr.live / text

‹ back to catalog

STARLINK-11231 [DTC]

NORAD 61057 · 2024-164H

PAYLOAD ACTIVE UNKNOWN

§ Identity

Operator
Country
US
Launch date
2024-09-13
Launch site
AFWTR
Launch vehicle
Mass (kg)
RCS (m²)

Purposes: comms

External: N2YO · Heavens-Above · Gunter

§ Orbital elements

Epoch: 2026-05-24T20:03:29.545632Z

Period
91.74 min
Inclination
53.1596°
Eccentricity
0.0001073
Mean motion
15.69703407 rev/d
Perigee alt
359.0 km
Apogee alt
360.5 km
Semi-major
6,737.9 km
B*
1.2109e-5
RAAN
296.2442°
Arg perigee
105.9198°
Mean anomaly
254.1939°
Rev number
9,737

§ Raw data

STARLINK-11231 [DTC]1 61057U 24164H   26144.83575863  .00000878  00000+0  12109-4 0  99972 61057  53.1596 296.2442 0001073 105.9198 254.1939 15.69703407 97374

JSON: /api/v1/satellites/61057 · /tle

For live sub-satellite position, see the globe view (requires WebGL).

§ Visibility from observer

Set your observer location to see the next 7 days of passes ≥ 10°. The values pass through the URL so the page stays shareable.

No JS? Fill the form by hand. The geolocation button needs JavaScript.